OK2ARM-12 Weather Reports


Display with metric or nautical units.
time (UTC)temp
F
wind
direction
speed
MPH
gust
MPH
rain 1hr
in
rain 24hr
in
rain mn
in
humidity
%
barometer
mb
20260904173844 76 0.0 0.0 0.00 0.00 0.00 42 1013.2
20260904172845 76 0.0 0.0 0.00 0.00 0.00 41 1013.0
20260904171844 77 0.0 0.0 0.00 0.00 0.00 40 1013.0
20260904170844 77 0.0 0.0 0.00 0.00 0.00 40 1013.0
20260904165844 77 0.0 0.0 0.00 0.00 0.00 40 1013.0
20260904164844 77 0.0 0.0 0.00 0.00 0.00 40 1013.1
20260904163844 77 0.0 0.0 0.00 0.00 0.00 40 1013.2
20260904162844 77 0.0 0.0 0.00 0.00 0.00 39 1013.3
20260904161844 78 0.0 0.0 0.00 0.00 0.00 39 1013.3
20260904160844 78 0.0 0.0 0.00 0.00 0.00 39 1013.4
20260904155844 78 0.0 0.0 0.00 0.00 0.00 39 1013.4
20260904153620 79 0.0 0.0 0.00 0.00 0.00 38 1013.9
20260904152621 79 0.0 0.0 0.00 0.00 0.00 39 1014.0
20260904151620 79 0.0 0.0 0.00 0.00 0.00 39 1013.8
20260904145356 78 0.0 0.0 0.00 0.00 0.00 40 1014.5
20260904144357 78 0.0 0.0 0.00 0.00 0.00 40 1014.6
20260904143356 77 0.0 0.0 0.00 0.00 0.00 39 1014.7
20260904142356 78 0.0 0.0 0.00 0.00 0.00 40 1014.9
20260904141356 78 0.0 0.0 0.00 0.00 0.00 40 1015.0
20260904140356 77 0.0 0.0 0.00 0.00 0.00 39 1014.9
20260904135356 77 0.0 0.0 0.00 0.00 0.00 40 1014.9
20260904133132 77 0.0 0.0 0.00 0.00 0.00 42 1015.4
20260904132132 76 0.0 0.0 0.00 0.00 0.00 41 1015.4
20260904131132 76 0.0 0.0 0.00 0.00 0.00 41 1015.7
20260904130132 76 0.0 0.0 0.00 0.00 0.00 43 1015.9
20260904125132 76 0.0 0.0 0.00 0.00 0.00 44 1015.9
20260904124132 75 0.0 0.0 0.00 0.00 0.00 45 1016.0
20260904123132 76 0.0 0.0 0.00 0.00 0.00 44 1016.0
20260904122132 74 0.0 0.0 0.00 0.00 0.00 48 1016.2
20260904121132 74 0.0 0.0 0.00 0.00 0.00 47 1016.3
20260904120131 74 0.0 0.0 0.00 0.00 0.00 47 1016.8
20260904115132 75 0.0 0.0 0.00 0.00 0.00 47 1016.9
20260904114132 74 0.0 0.0 0.00 0.00 0.00 47 1016.9
20260904113132 75 0.0 0.0 0.00 0.00 0.00 47 1017.1
20260904112132 75 0.0 0.0 0.00 0.00 0.00 47 1017.1
20260904111132 73 0.0 0.0 0.00 0.00 0.00 49 1017.4
20260904110132 73 0.0 0.0 0.00 0.00 0.00 50 1017.5
20260904105132 72 0.0 0.0 0.00 0.00 0.00 51 1017.4
20260904104132 72 0.0 0.0 0.00 0.00 0.00 52 1017.6
20260904103132 71 0.0 0.0 0.00 0.00 0.00 54 1017.7
20260904102132 71 0.0 0.0 0.00 0.00 0.00 52 1017.8
20260904101131 72 0.0 0.0 0.00 0.00 0.00 53 1018.0
20260904100132 71 0.0 0.0 0.00 0.00 0.00 53 1018.1
20260904093908 71 0.0 0.0 0.00 0.00 0.00 56 1018.6
20260904092908 70 0.0 0.0 0.00 0.00 0.00 57 1018.9
20260904091907 70 0.0 0.0 0.00 0.00 0.00 57 1019.0
20260904090907 70 0.0 0.0 0.00 0.00 0.00 55 1019.1
20260904085907 69 0.0 0.0 0.00 0.00 0.00 57 1019.3
20260904084908 69 0.0 0.0 0.00 0.00 0.00 58 1019.5
20260904083907 70 0.0 0.0 0.00 0.00 0.00 57 1019.3
20260904082908 69 0.0 0.0 0.00 0.00 0.00 58 1019.4
20260904081908 68 0.0 0.0 0.00 0.00 0.00 60 1019.2
20260904080908 67 0.0 0.0 0.00 0.00 0.00 60 1019.2
20260904075908 67 0.0 0.0 0.00 0.00 0.00 61 1019.2
20260904074907 68 0.0 0.0 0.00 0.00 0.00 61 1019.2
20260904073907 66 0.0 0.0 0.00 0.00 0.00 63 1019.3
20260904071644 66 0.0 0.0 0.00 0.00 0.00 64 1019.4
20260904070644 66 0.0 0.0 0.00 0.00 0.00 66 1019.4
20260904065645 65 0.0 0.0 0.00 0.00 0.00 66 1019.4
20260904064644 64 0.0 0.0 0.00 0.00 0.00 67 1019.4
20260904063643 64 0.0 0.0 0.00 0.00 0.00 68 1019.5
20260904060156 62 0.0 0.0 0.00 0.00 0.00 72 1019.7
20260904055156 61 0.0 0.0 0.00 0.00 0.00 73 1019.7
20260904054156 61 0.0 0.0 0.00 0.00 0.00 73 1019.6
20260904053157 60 0.0 0.0 0.00 0.00 0.00 74 1019.6
20260904052157 60 0.0 0.0 0.00 0.00 0.00 75 1019.6
20260904051156 60 0.0 0.0 0.00 0.00 0.00 76 1019.6
20260904050156 60 0.0 0.0 0.00 0.00 0.00 76 1019.5
20260904043933 60 0.0 0.0 0.00 0.00 0.00 76 1019.3
20260904041709 60 0.0 0.0 0.00 0.00 0.00 76 1019.2
20260904040710 59 0.0 0.0 0.00 0.00 0.00 76 1019.3
20260904034446 59 0.0 0.0 0.00 0.00 0.00 75 1019.5
20260904032222 60 0.0 0.0 0.00 0.00 0.00 74 1019.6
20260904031222 60 0.0 0.0 0.00 0.00 0.00 74 1019.7
20260904030222 60 0.0 0.0 0.00 0.00 0.00 73 1019.8
20260904025222 60 0.0 0.0 0.00 0.00 0.00 73 1019.9
20260904024222 60 0.0 0.0 0.00 0.00 0.00 73 1019.8
20260904023222 61 0.0 0.0 0.00 0.00 0.00 72 1019.7
20260904015735 61 0.0 0.0 0.00 0.00 0.00 72 1019.4
20260904014735 61 0.0 0.0 0.00 0.00 0.00 72 1019.5
20260904013735 60 0.0 0.0 0.00 0.00 0.00 72 1019.5
20260904012735 61 0.0 0.0 0.00 0.00 0.00 72 1019.6
20260904011735 60 0.0 0.0 0.00 0.00 0.00 73 1019.6
20260904010735 60 0.0 0.0 0.00 0.00 0.00 73 1019.7
20260904005735 60 0.0 0.0 0.00 0.00 0.00 73 1019.8
20260904003515 60 0.0 0.0 0.00 0.00 0.00 72 1019.8
20260904002511 61 0.0 0.0 0.00 0.00 0.00 72 1019.9
20260904001511 60 0.0 0.0 0.00 0.00 0.00 72 1020.0
20260904000511 60 0.0 0.0 0.00 0.00 0.00 72 1020.1
20260903235511 60 0.0 0.0 0.00 0.00 0.00 72 1020.3
20260903234511 60 0.0 0.0 0.00 0.00 0.00 73 1020.2
20260903233511 60 0.0 0.0 0.00 0.00 0.00 74 1020.1
20260903232511 60 0.0 0.0 0.00 0.00 0.00 74 1020.2
20260903231511 59 0.0 0.0 0.00 0.00 0.00 74 1020.3
20260903230511 59 0.0 0.0 0.00 0.00 0.00 74 1020.2
20260903225511 60 0.0 0.0 0.00 0.00 0.00 73 1020.3
20260903223246 60 0.0 0.0 0.00 0.00 0.00 72 1020.5
20260903222247 60 0.0 0.0 0.00 0.00 0.00 71 1020.6
20260903221247 60 0.0 0.0 0.00 0.00 0.00 71 1020.5
20260903220247 60 0.0 0.0 0.00 0.00 0.00 72 1020.5
20260903215247 60 0.0 0.0 0.00 0.00 0.00 71 1020.6
20260903214247 60 0.0 0.0 0.00 0.00 0.00 71 1020.7
20260903212023 60 0.0 0.0 0.00 0.00 0.00 70 1020.7
20260903211023 61 0.0 0.0 0.00 0.00 0.00 69 1020.8
20260903204759 61 0.0 0.0 0.00 0.00 0.00 67 1021.0
20260903203759 62 0.0 0.0 0.00 0.00 0.00 66 1021.0
20260903202759 62 0.0 0.0 0.00 0.00 0.00 66 1020.9
20260903201759 62 0.0 0.0 0.00 0.00 0.00 64 1021.0
20260903200800 62 0.0 0.0 0.00 0.00 0.00 63 1021.0
20260903195759 62 0.0 0.0 0.00 0.00 0.00 62 1021.2
20260903193535 63 0.0 0.0 0.00 0.00 0.00 60 1021.0
20260903192534 64 0.0 0.0 0.00 0.00 0.00 58 1020.7
20260903191535 64 0.0 0.0 0.00 0.00 0.00 56 1020.7
20260903190535 64 0.0 0.0 0.00 0.00 0.00 55 1020.5
20260903185535 65 0.0 0.0 0.00 0.00 0.00 53 1020.5
20260903184535 65 0.0 0.0 0.00 0.00 0.00 52 1020.4
20260903183535 65 0.0 0.0 0.00 0.00 0.00 52 1020.2
20260903182535 65 0.0 0.0 0.00 0.00 0.00 51 1020.1
20260903181535 65 0.0 0.0 0.00 0.00 0.00 51 1020.1
20260903180535 65 0.0 0.0 0.00 0.00 0.00 50 1020.0
20260903175535 65 0.0 0.0 0.00 0.00 0.00 49 1019.9
20260903174535 65 0.0 0.0 0.00 0.00 0.00 49 1020.1